SUD027 SKPS-SLLP

Flight info

Callsign SUD027
Flight time 3h 47m
Altitude 35000
Route TISLU DCT PULTU DCT VUDKU DCT UMBAT DCT ASOLA DCT PUMSA DCT MUBIN DCT OPTOP
Aircraft A320/M-SDFGHILORVWY/S

Departure

Time 2026-05-06 09:57
Airport Antonio Nariño Airport (SKPS)

Arrival

Time 2026-05-06 13:44
Airport El Alto International Airport (SLLP)
Time Latitude Longitude Altitude Speed Heading
2026-05-06 09:36 1.39576 -77.28983 5908 ft 0 kts 105°
2026-05-06 09:38 1.39576 -77.28984 5908 ft 0 kts 105°
2026-05-06 09:46 1.39580 -77.28998 5908 ft 4 kts 106°
2026-05-06 09:47 1.39588 -77.29024 5907 ft 4 kts 108°
2026-05-06 09:47 1.39594 -77.29042 5908 ft 1 kts 109°
2026-05-06 09:47 1.39595 -77.29045 5908 ft 3 kts 109°
2026-05-06 09:50 1.39591 -77.29037 5908 ft 4 kts 118°
2026-05-06 09:50 1.39575 -77.29033 5908 ft 3 kts 167°
2026-05-06 09:51 1.39541 -77.29040 5908 ft 6 kts 202°
2026-05-06 09:51 1.39516 -77.29059 5909 ft 2 kts 247°
2026-05-06 09:51 1.39515 -77.29064 5909 ft 0 kts 260°
2026-05-06 09:51 1.39515 -77.29072 5910 ft 0 kts 269°
2026-05-06 09:52 1.39517 -77.29074 5910 ft 2 kts 287°
2026-05-06 09:52 1.39523 -77.29112 5912 ft 9 kts 269°
2026-05-06 09:52 1.39489 -77.29140 5915 ft 5 kts 199°
2026-05-06 09:52 1.39445 -77.29152 5916 ft 9 kts 195°
2026-05-06 09:53 1.39369 -77.29172 5922 ft 14 kts 194°
2026-05-06 09:53 1.39261 -77.29200 5926 ft 19 kts 194°
2026-05-06 09:53 1.39136 -77.29234 5932 ft 18 kts 195°
2026-05-06 09:53 1.39012 -77.29267 5933 ft 18 kts 194°
2026-05-06 09:54 1.38905 -77.29295 5940 ft 15 kts 195°
2026-05-06 09:54 1.38798 -77.29323 5947 ft 15 kts 195°
2026-05-06 09:54 1.38713 -77.29345 5953 ft 8 kts 189°
2026-05-06 09:54 1.38682 -77.29342 5956 ft 2 kts 193°
2026-05-06 09:55 1.38678 -77.29350 5965 ft 1 kts 257°
2026-05-06 09:55 1.38699 -77.29352 5956 ft 6 kts 30°
2026-05-06 09:55 1.38716 -77.29346 5951 ft 0 kts 17°
2026-05-06 09:56 1.38718 -77.29345 5951 ft 3 kts 17°
2026-05-06 09:56 1.38922 -77.29290 5941 ft 70 kts 15°
2026-05-06 09:56 1.39647 -77.29098 5906 ft 143 kts 15°
2026-05-06 09:56 1.40808 -77.28800 5929 ft 195 kts 15°
2026-05-06 09:57 1.42114 -77.28478 6655 ft 190 kts 14°
2026-05-06 09:57 1.43385 -77.28153 7478 ft 187 kts 14°
2026-05-06 09:57 1.44605 -77.27679 8056 ft 194 kts 41°
2026-05-06 09:57 1.45299 -77.26550 8199 ft 196 kts 82°
2026-05-06 09:58 1.45205 -77.25176 8342 ft 207 kts 109°
2026-05-06 09:58 1.44754 -77.23728 8434 ft 231 kts 109°
2026-05-06 09:58 1.44254 -77.22118 8627 ft 254 kts 108°
2026-05-06 09:58 1.43713 -77.20357 8861 ft 276 kts 108°
2026-05-06 09:59 1.43141 -77.18486 9338 ft 286 kts 108°
2026-05-06 09:59 1.42558 -77.16550 9809 ft 294 kts 107°
2026-05-06 09:59 1.41963 -77.14560 10106 ft 309 kts 108°
2026-05-06 09:59 1.41327 -77.12437 10233 ft 328 kts 108°
2026-05-06 10:00 1.40674 -77.10244 10817 ft 329 kts 108°
2026-05-06 10:00 1.40032 -77.08079 11689 ft 324 kts 108°
2026-05-06 10:00 1.39381 -77.05899 12281 ft 328 kts 107°
2026-05-06 10:00 1.38721 -77.03698 12836 ft 332 kts 107°
2026-05-06 10:01 1.38056 -77.01475 13330 ft 337 kts 107°
2026-05-06 10:01 1.37385 -76.99229 13948 ft 337 kts 107°
2026-05-06 10:01 1.36717 -76.96988 14505 ft 337 kts 107°
2026-05-06 10:01 1.36042 -76.94724 14969 ft 342 kts 107°
2026-05-06 10:02 1.35360 -76.92441 15420 ft 344 kts 107°
2026-05-06 10:02 1.34674 -76.90139 15929 ft 346 kts 107°
2026-05-06 10:02 1.33983 -76.87815 16349 ft 351 kts 106°
2026-05-06 10:02 1.33283 -76.85461 16777 ft 356 kts 106°
2026-05-06 10:03 1.32569 -76.83070 17143 ft 361 kts 106°
2026-05-06 10:03 1.31849 -76.80656 17594 ft 365 kts 106°
2026-05-06 10:03 1.31120 -76.78216 18033 ft 368 kts 106°
2026-05-06 10:03 1.30384 -76.75757 18470 ft 371 kts 107°
2026-05-06 10:04 1.29643 -76.73278 18874 ft 374 kts 106°
2026-05-06 10:04 1.28896 -76.70780 19277 ft 376 kts 106°
2026-05-06 10:04 1.28143 -76.68268 19696 ft 378 kts 106°
2026-05-06 10:04 1.27385 -76.65740 20088 ft 382 kts 106°
2026-05-06 10:05 1.26621 -76.63194 20458 ft 384 kts 106°
2026-05-06 10:05 1.25852 -76.60626 20872 ft 387 kts 106°
2026-05-06 10:05 1.25078 -76.58041 21245 ft 389 kts 105°
2026-05-06 10:05 1.24303 -76.55438 21636 ft 392 kts 105°
2026-05-06 10:06 1.23525 -76.52815 21979 ft 396 kts 105°
2026-05-06 10:06 1.22739 -76.50174 22312 ft 398 kts 105°
2026-05-06 10:06 1.21947 -76.47514 22719 ft 399 kts 105°
2026-05-06 10:06 1.21150 -76.44849 23099 ft 402 kts 105°
2026-05-06 10:07 1.20347 -76.42167 23458 ft 404 kts 105°
2026-05-06 10:07 1.19540 -76.39468 23783 ft 406 kts 105°
2026-05-06 10:07 1.19003 -76.37677 23972 ft 408 kts 105°
2026-05-06 10:07 1.18190 -76.34953 24227 ft 410 kts 105°
2026-05-06 10:08 1.17377 -76.32220 24519 ft 412 kts 105°
2026-05-06 10:08 1.16556 -76.29472 24807 ft 414 kts 105°
2026-05-06 10:08 1.15730 -76.26711 25085 ft 415 kts 105°
2026-05-06 10:08 1.14833 -76.24010 25344 ft 418 kts 111°
2026-05-06 10:09 1.13474 -76.21425 25591 ft 422 kts 121°
2026-05-06 10:09 1.11658 -76.19104 25850 ft 427 kts 131°
2026-05-06 10:09 1.09425 -76.17124 26108 ft 432 kts 142°
2026-05-06 10:09 1.06862 -76.15532 26358 ft 436 kts 148°
2026-05-06 10:10 1.04231 -76.14026 26600 ft 437 kts 148°
2026-05-06 10:10 1.01582 -76.12508 26839 ft 439 kts 147°
2026-05-06 10:10 0.98939 -76.10989 27079 ft 441 kts 147°
2026-05-06 10:10 0.96277 -76.09459 27319 ft 442 kts 147°
2026-05-06 10:11 0.93606 -76.07923 27553 ft 444 kts 147°
2026-05-06 10:11 0.90921 -76.06379 27770 ft 446 kts 148°
2026-05-06 10:11 0.88226 -76.04835 28000 ft 448 kts 148°
2026-05-06 10:11 0.85553 -76.03301 28222 ft 449 kts 147°
2026-05-06 10:12 0.82805 -76.01721 28442 ft 451 kts 147°
2026-05-06 10:12 0.80078 -76.00153 28652 ft 453 kts 147°
2026-05-06 10:12 0.77347 -75.98581 28864 ft 454 kts 147°
2026-05-06 10:12 0.74601 -75.97003 29063 ft 456 kts 148°
2026-05-06 10:13 0.71845 -75.95422 29262 ft 457 kts 148°
2026-05-06 10:13 0.69079 -75.93838 29462 ft 459 kts 148°
2026-05-06 10:13 0.67032 -75.92664 29601 ft 460 kts 148°
2026-05-06 10:14 0.64253 -75.91068 29785 ft 461 kts 148°
2026-05-06 10:14 0.61465 -75.89468 29965 ft 463 kts 148°
2026-05-06 10:14 0.58671 -75.87863 30130 ft 464 kts 148°
2026-05-06 10:14 0.55872 -75.86252 30292 ft 465 kts 148°
2026-05-06 10:15 0.53069 -75.84639 30461 ft 465 kts 148°
2026-05-06 10:15 0.50260 -75.83026 30622 ft 466 kts 148°
2026-05-06 10:15 0.47447 -75.81412 30776 ft 467 kts 148°
2026-05-06 10:15 0.44624 -75.79793 30923 ft 468 kts 148°
2026-05-06 10:16 0.41806 -75.78178 31064 ft 468 kts 148°
2026-05-06 10:16 0.38976 -75.76557 31210 ft 468 kts 148°
2026-05-06 10:16 0.36150 -75.74937 31341 ft 469 kts 148°
2026-05-06 10:16 0.33322 -75.73315 31522 ft 468 kts 148°
2026-05-06 10:17 0.30500 -75.71697 31700 ft 467 kts 148°
2026-05-06 10:17 0.27683 -75.70078 31880 ft 467 kts 148°
2026-05-06 10:17 0.24875 -75.68462 32061 ft 466 kts 148°
2026-05-06 10:17 0.22069 -75.66849 32237 ft 465 kts 148°
2026-05-06 10:18 0.19263 -75.65236 32414 ft 465 kts 148°
2026-05-06 10:18 0.16460 -75.63625 32591 ft 464 kts 148°
2026-05-06 10:18 0.13701 -75.62042 32768 ft 463 kts 148°
2026-05-06 10:18 0.10868 -75.60418 32951 ft 463 kts 148°
2026-05-06 10:19 0.08079 -75.58819 33129 ft 462 kts 148°
2026-05-06 10:19 0.05231 -75.57416 33306 ft 464 kts 155°
2026-05-06 10:19 0.02240 -75.56201 33480 ft 463 kts 155°
2026-05-06 10:19 -0.00773 -75.54979 33665 ft 463 kts 155°
2026-05-06 10:20 -0.03722 -75.53784 33863 ft 462 kts 155°
2026-05-06 10:20 -0.06697 -75.52579 34055 ft 460 kts 155°
2026-05-06 10:20 -0.09661 -75.51375 34216 ft 460 kts 155°
2026-05-06 10:20 -0.12625 -75.50170 34362 ft 460 kts 156°
2026-05-06 10:21 -0.15590 -75.48967 34506 ft 460 kts 156°
2026-05-06 10:21 -0.18548 -75.47767 34644 ft 460 kts 156°
2026-05-06 10:21 -0.21512 -75.46562 34779 ft 459 kts 156°
2026-05-06 10:21 -0.24469 -75.45360 34926 ft 459 kts 156°
2026-05-06 10:22 -0.30366 -75.42966 35005 ft 456 kts 156°
2026-05-06 10:22 -0.36234 -75.40586 35005 ft 454 kts 156°
2026-05-06 10:23 -0.42085 -75.38214 35005 ft 454 kts 156°
2026-05-06 10:23 -0.47937 -75.35836 35005 ft 454 kts 156°
2026-05-06 10:24 -0.53782 -75.33459 35005 ft 454 kts 156°
2026-05-06 10:24 -0.59628 -75.31080 35006 ft 454 kts 156°
2026-05-06 10:25 -0.65473 -75.28705 35008 ft 453 kts 156°
2026-05-06 10:25 -0.71316 -75.26321 35006 ft 453 kts 156°
2026-05-06 10:26 -0.77157 -75.23943 35005 ft 453 kts 156°
2026-05-06 10:26 -0.83001 -75.21581 35004 ft 453 kts 156°
2026-05-06 10:27 -0.88845 -75.19213 35006 ft 453 kts 156°
2026-05-06 10:27 -0.94684 -75.16833 35005 ft 453 kts 156°
2026-05-06 10:28 -1.00523 -75.14466 35004 ft 453 kts 156°
2026-05-06 10:28 -1.06362 -75.12097 34999 ft 453 kts 156°
2026-05-06 10:29 -1.12199 -75.09723 35001 ft 453 kts 156°
2026-05-06 10:29 -1.18040 -75.07347 34999 ft 453 kts 156°
2026-05-06 10:30 -1.23889 -75.04974 34997 ft 454 kts 156°
2026-05-06 10:30 -1.29735 -75.02599 34998 ft 454 kts 156°
2026-05-06 10:31 -1.35587 -75.00221 35002 ft 454 kts 156°
2026-05-06 10:31 -1.41441 -74.97844 35002 ft 454 kts 156°
2026-05-06 10:32 -1.47292 -74.95460 35001 ft 454 kts 156°
2026-05-06 10:32 -1.53146 -74.93072 35001 ft 455 kts 155°
2026-05-06 10:33 -1.59011 -74.90690 35002 ft 455 kts 156°
2026-05-06 10:33 -1.64838 -74.88330 35003 ft 455 kts 156°
2026-05-06 10:34 -1.70745 -74.85929 35005 ft 455 kts 156°
2026-05-06 10:34 -1.76613 -74.83544 35009 ft 455 kts 156°
2026-05-06 10:35 -1.82481 -74.81156 35010 ft 455 kts 156°
2026-05-06 10:35 -1.88353 -74.78770 35012 ft 456 kts 156°
2026-05-06 10:36 -1.94225 -74.76381 35012 ft 456 kts 155°
2026-05-06 10:36 -2.00097 -74.73993 35014 ft 456 kts 155°
2026-05-06 10:37 -2.05975 -74.71609 35016 ft 456 kts 156°
2026-05-06 10:37 -2.11855 -74.69220 35018 ft 456 kts 155°
2026-05-06 10:38 -2.17726 -74.66826 35018 ft 456 kts 155°
2026-05-06 10:38 -2.23562 -74.64453 35017 ft 456 kts 156°
2026-05-06 10:39 -2.29439 -74.62064 35017 ft 456 kts 156°
2026-05-06 10:39 -2.35319 -74.59677 35017 ft 456 kts 156°
2026-05-06 10:40 -2.41192 -74.57287 35015 ft 456 kts 156°
2026-05-06 10:40 -2.47066 -74.54894 35014 ft 456 kts 155°
2026-05-06 10:41 -2.52939 -74.52495 35016 ft 456 kts 155°
2026-05-06 10:41 -2.58816 -74.50106 35012 ft 456 kts 155°
2026-05-06 10:42 -2.64697 -74.47721 35009 ft 456 kts 155°
2026-05-06 10:42 -2.70580 -74.45325 35012 ft 457 kts 155°
2026-05-06 10:43 -2.76462 -74.42920 35013 ft 457 kts 155°
2026-05-06 10:44 -2.85298 -74.39319 35013 ft 457 kts 155°
2026-05-06 10:44 -2.91190 -74.36926 35016 ft 457 kts 155°
2026-05-06 10:45 -2.97079 -74.34532 35018 ft 457 kts 155°
2026-05-06 10:45 -3.02970 -74.32128 35020 ft 457 kts 155°
2026-05-06 10:46 -3.08859 -74.29721 35018 ft 457 kts 155°
2026-05-06 10:46 -3.14752 -74.27325 35019 ft 457 kts 155°
2026-05-06 10:47 -3.20648 -74.24927 35021 ft 457 kts 155°
2026-05-06 10:47 -3.26533 -74.22524 35017 ft 457 kts 155°
2026-05-06 10:48 -3.32416 -74.20123 35012 ft 457 kts 155°
2026-05-06 10:48 -3.38306 -74.17719 35002 ft 458 kts 155°
2026-05-06 10:49 -3.44209 -74.15315 34999 ft 458 kts 155°
2026-05-06 10:49 -3.50121 -74.12906 35002 ft 459 kts 155°
2026-05-06 10:50 -3.55929 -74.10289 35005 ft 457 kts 149°
2026-05-06 10:50 -3.61507 -74.07233 35005 ft 457 kts 149°
2026-05-06 10:51 -3.67083 -74.04179 35006 ft 457 kts 148°
2026-05-06 10:51 -3.71721 -74.01647 35000 ft 457 kts 148°
2026-05-06 10:52 -3.78201 -73.98099 35005 ft 457 kts 148°
2026-05-06 10:52 -3.83776 -73.95038 35005 ft 457 kts 148°
2026-05-06 10:53 -3.88447 -73.92477 35006 ft 457 kts 149°
2026-05-06 10:53 -3.94032 -73.89421 35008 ft 457 kts 149°
2026-05-06 10:54 -3.99612 -73.86364 35013 ft 457 kts 149°
2026-05-06 10:54 -4.05196 -73.83303 35016 ft 458 kts 148°
2026-05-06 10:55 -4.10780 -73.80241 35021 ft 458 kts 149°
2026-05-06 10:55 -4.16367 -73.77174 35026 ft 458 kts 148°
2026-05-06 10:56 -4.21914 -73.74130 35025 ft 458 kts 149°
2026-05-06 10:56 -4.27507 -73.71069 35031 ft 458 kts 149°
2026-05-06 10:57 -4.33098 -73.68004 35033 ft 458 kts 148°
2026-05-06 10:57 -4.38688 -73.64926 35037 ft 458 kts 149°
2026-05-06 10:58 -4.44278 -73.61853 35039 ft 458 kts 149°
2026-05-06 10:58 -4.49873 -73.58793 35041 ft 458 kts 149°
2026-05-06 10:59 -4.55468 -73.55724 35043 ft 458 kts 149°
2026-05-06 10:59 -4.61056 -73.52656 35044 ft 458 kts 149°
2026-05-06 11:00 -4.66644 -73.49588 35044 ft 458 kts 149°
2026-05-06 11:00 -4.72230 -73.46513 35046 ft 458 kts 148°
2026-05-06 11:01 -4.77819 -73.43442 35027 ft 459 kts 148°
2026-05-06 11:01 -4.83438 -73.40363 35008 ft 461 kts 148°
2026-05-06 11:02 -4.89079 -73.37261 35007 ft 463 kts 148°
2026-05-06 11:02 -4.94731 -73.34149 35010 ft 464 kts 148°
2026-05-06 11:03 -5.00393 -73.31032 35015 ft 465 kts 148°
2026-05-06 11:03 -5.06070 -73.27913 35008 ft 466 kts 149°
2026-05-06 11:04 -5.11762 -73.24784 35002 ft 467 kts 149°
2026-05-06 11:04 -5.17456 -73.21650 35019 ft 467 kts 149°
2026-05-06 11:05 -5.23114 -73.18539 35029 ft 467 kts 149°
2026-05-06 11:05 -5.28802 -73.15408 35032 ft 466 kts 149°
2026-05-06 11:06 -5.34493 -73.12280 35036 ft 466 kts 149°
2026-05-06 11:06 -5.40188 -73.09156 35036 ft 466 kts 149°
2026-05-06 11:07 -5.45876 -73.06024 35033 ft 466 kts 149°
2026-05-06 11:07 -5.51553 -73.02888 35027 ft 466 kts 149°
2026-05-06 11:08 -5.57241 -72.99757 35022 ft 466 kts 149°
2026-05-06 11:08 -5.62928 -72.96630 35021 ft 466 kts 149°
2026-05-06 11:09 -5.68678 -72.93607 35024 ft 466 kts 152°
2026-05-06 11:09 -5.74565 -72.90867 35025 ft 466 kts 154°
2026-05-06 11:10 -5.80476 -72.88178 35025 ft 466 kts 153°
2026-05-06 11:10 -5.86357 -72.85423 35029 ft 466 kts 153°
2026-05-06 11:11 -5.92210 -72.82627 35033 ft 466 kts 153°
2026-05-06 11:11 -5.98068 -72.79835 35039 ft 466 kts 153°
2026-05-06 11:12 -6.03931 -72.77061 35038 ft 466 kts 153°
2026-05-06 11:12 -6.09789 -72.74277 35039 ft 466 kts 153°
2026-05-06 11:13 -6.15642 -72.71495 35036 ft 465 kts 153°
2026-05-06 11:13 -6.21499 -72.68727 35024 ft 465 kts 153°
2026-05-06 11:14 -6.27361 -72.65952 35025 ft 466 kts 153°
2026-05-06 11:14 -6.33227 -72.63159 35024 ft 467 kts 153°
2026-05-06 11:15 -6.39097 -72.60360 35020 ft 467 kts 153°
2026-05-06 11:15 -6.44977 -72.57570 35030 ft 467 kts 153°
2026-05-06 11:16 -6.50853 -72.54780 35032 ft 467 kts 153°
2026-05-06 11:16 -6.56729 -72.51989 35039 ft 467 kts 153°
2026-05-06 11:17 -6.62597 -72.49199 35040 ft 466 kts 153°
2026-05-06 11:17 -6.68463 -72.46412 35036 ft 466 kts 153°
2026-05-06 11:18 -6.74320 -72.43622 35035 ft 466 kts 153°
2026-05-06 11:18 -6.80185 -72.40833 35035 ft 466 kts 153°
2026-05-06 11:19 -6.86047 -72.38046 35033 ft 466 kts 153°
2026-05-06 11:19 -6.91917 -72.35254 35037 ft 467 kts 154°
2026-05-06 11:20 -6.97792 -72.32461 35037 ft 467 kts 154°
2026-05-06 11:20 -7.03626 -72.29680 35037 ft 467 kts 153°
2026-05-06 11:21 -7.09499 -72.26877 35034 ft 467 kts 153°
2026-05-06 11:21 -7.15373 -72.24076 35034 ft 467 kts 153°
2026-05-06 11:22 -7.21255 -72.21281 35033 ft 467 kts 153°
2026-05-06 11:22 -7.27167 -72.18461 35034 ft 467 kts 153°
2026-05-06 11:23 -7.33000 -72.15679 35032 ft 467 kts 153°
2026-05-06 11:23 -7.38874 -72.12881 35030 ft 467 kts 153°
2026-05-06 11:24 -7.44741 -72.10084 35035 ft 467 kts 153°
2026-05-06 11:24 -7.50615 -72.07283 35033 ft 467 kts 153°
2026-05-06 11:25 -7.56478 -72.04479 35031 ft 467 kts 153°
2026-05-06 11:25 -7.62348 -72.01679 35030 ft 467 kts 153°
2026-05-06 11:26 -7.68213 -71.98880 35028 ft 466 kts 153°
2026-05-06 11:26 -7.74077 -71.96078 35026 ft 466 kts 153°
2026-05-06 11:27 -7.79936 -71.93266 35025 ft 466 kts 153°
2026-05-06 11:27 -7.85801 -71.90460 35023 ft 466 kts 153°
2026-05-06 11:28 -7.91667 -71.87661 35021 ft 467 kts 153°
2026-05-06 11:28 -7.97537 -71.84851 35018 ft 467 kts 153°
2026-05-06 11:29 -8.03413 -71.82040 35021 ft 468 kts 153°
2026-05-06 11:29 -8.09297 -71.79225 35022 ft 468 kts 153°
2026-05-06 11:30 -8.15180 -71.76403 35026 ft 468 kts 153°
2026-05-06 11:30 -8.21068 -71.73584 35030 ft 469 kts 153°
2026-05-06 11:31 -8.26961 -71.70760 35037 ft 469 kts 153°
2026-05-06 11:31 -8.32858 -71.67938 35035 ft 469 kts 153°
2026-05-06 11:32 -8.38763 -71.65109 35038 ft 470 kts 154°
2026-05-06 11:32 -8.44664 -71.62282 35039 ft 470 kts 153°
2026-05-06 11:33 -8.50527 -71.59462 35040 ft 470 kts 153°
2026-05-06 11:33 -8.56429 -71.56623 35041 ft 470 kts 153°
2026-05-06 11:34 -8.62332 -71.53794 35048 ft 469 kts 153°
2026-05-06 11:34 -8.68230 -71.50958 35049 ft 469 kts 153°
2026-05-06 11:35 -8.74120 -71.48129 35047 ft 469 kts 154°
2026-05-06 11:35 -8.80008 -71.45302 35047 ft 468 kts 154°
2026-05-06 11:36 -8.85894 -71.42474 35048 ft 469 kts 153°
2026-05-06 11:36 -8.91782 -71.39642 35049 ft 468 kts 153°
2026-05-06 11:37 -8.97661 -71.36803 35044 ft 468 kts 154°
2026-05-06 11:37 -9.03546 -71.33972 35047 ft 468 kts 154°
2026-05-06 11:38 -9.09431 -71.31146 35048 ft 468 kts 154°
2026-05-06 11:38 -9.14314 -71.28798 35048 ft 468 kts 154°
2026-05-06 11:39 -9.20188 -71.25963 35047 ft 468 kts 154°
2026-05-06 11:39 -9.26056 -71.23130 35045 ft 467 kts 154°
2026-05-06 11:40 -9.31928 -71.20296 35048 ft 468 kts 154°
2026-05-06 11:40 -9.37800 -71.17465 35045 ft 467 kts 154°
2026-05-06 11:41 -9.43672 -71.14625 35041 ft 467 kts 154°
2026-05-06 11:41 -9.49543 -71.11792 35039 ft 468 kts 154°
2026-05-06 11:42 -9.55424 -71.08954 35040 ft 468 kts 154°
2026-05-06 11:42 -9.61303 -71.06112 35042 ft 468 kts 154°
2026-05-06 11:43 -9.67191 -71.03267 35045 ft 469 kts 154°
2026-05-06 11:43 -9.73082 -71.00421 35048 ft 469 kts 154°
2026-05-06 11:44 -9.81959 -70.96207 35049 ft 470 kts 156°
2026-05-06 11:44 -9.88037 -70.93766 35047 ft 470 kts 159°
2026-05-06 11:45 -9.94171 -70.91462 35048 ft 470 kts 159°
2026-05-06 11:45 -10.00272 -70.89088 35047 ft 470 kts 158°
2026-05-06 11:46 -10.06355 -70.86653 35038 ft 470 kts 158°
2026-05-06 11:46 -10.12431 -70.84211 35045 ft 470 kts 158°
2026-05-06 11:47 -10.18508 -70.81785 35051 ft 469 kts 158°
2026-05-06 11:47 -10.24551 -70.79386 35051 ft 469 kts 158°
2026-05-06 11:48 -10.30670 -70.76948 35053 ft 469 kts 158°
2026-05-06 11:48 -10.36744 -70.74517 35044 ft 469 kts 158°
2026-05-06 11:49 -10.42830 -70.72081 35036 ft 471 kts 158°
2026-05-06 11:49 -10.48930 -70.69659 35035 ft 471 kts 158°
2026-05-06 11:50 -10.54991 -70.67241 35036 ft 471 kts 158°
2026-05-06 11:50 -10.61090 -70.64794 35037 ft 471 kts 158°
2026-05-06 11:51 -10.67198 -70.62352 35041 ft 472 kts 158°
2026-05-06 11:51 -10.73308 -70.59911 35032 ft 472 kts 158°
2026-05-06 11:52 -10.79424 -70.57468 35032 ft 472 kts 158°
2026-05-06 11:52 -10.85543 -70.55020 35033 ft 473 kts 158°
2026-05-06 11:53 -10.91674 -70.52562 35042 ft 473 kts 158°
2026-05-06 11:53 -10.97799 -70.50109 35056 ft 473 kts 158°
2026-05-06 11:54 -11.03920 -70.47659 35060 ft 472 kts 158°
2026-05-06 11:54 -11.10031 -70.45204 35058 ft 472 kts 158°
2026-05-06 11:55 -11.16136 -70.42757 35056 ft 472 kts 158°
2026-05-06 11:55 -11.22248 -70.40306 35055 ft 472 kts 158°
2026-05-06 11:56 -11.28352 -70.37854 35053 ft 472 kts 158°
2026-05-06 11:56 -11.34456 -70.35404 35053 ft 472 kts 158°
2026-05-06 11:57 -11.40566 -70.32956 35047 ft 472 kts 158°
2026-05-06 11:57 -11.46675 -70.30498 35045 ft 472 kts 158°
2026-05-06 11:58 -11.52780 -70.28025 35042 ft 472 kts 158°
2026-05-06 11:58 -11.58895 -70.25558 35043 ft 472 kts 158°
2026-05-06 11:59 -11.65012 -70.23102 35042 ft 473 kts 158°
2026-05-06 11:59 -11.71126 -70.20637 35043 ft 473 kts 158°
2026-05-06 12:00 -11.77247 -70.18175 35043 ft 473 kts 158°
2026-05-06 12:00 -11.83363 -70.15708 35050 ft 472 kts 158°
2026-05-06 12:01 -11.89473 -70.13243 35048 ft 472 kts 158°
2026-05-06 12:01 -11.95543 -70.10798 35051 ft 472 kts 158°
2026-05-06 12:02 -12.01657 -70.08330 35050 ft 472 kts 158°
2026-05-06 12:02 -12.07763 -70.05862 35051 ft 472 kts 158°
2026-05-06 12:03 -12.13871 -70.03386 35050 ft 472 kts 158°
2026-05-06 12:03 -12.19979 -70.00914 35050 ft 472 kts 158°
2026-05-06 12:04 -12.26092 -69.98444 35050 ft 472 kts 158°
2026-05-06 12:04 -12.32201 -69.95972 35050 ft 472 kts 158°
2026-05-06 12:05 -12.38313 -69.93500 35055 ft 472 kts 158°
2026-05-06 12:05 -12.44425 -69.91025 35049 ft 473 kts 158°
2026-05-06 12:06 -12.50537 -69.88546 35048 ft 473 kts 158°
2026-05-06 12:06 -12.56649 -69.86055 35050 ft 473 kts 158°
2026-05-06 12:07 -12.62766 -69.83567 35050 ft 473 kts 158°
2026-05-06 12:07 -12.68884 -69.81084 35052 ft 473 kts 158°
2026-05-06 12:08 -12.75003 -69.78598 35050 ft 473 kts 159°
2026-05-06 12:08 -12.81125 -69.76105 35048 ft 474 kts 159°
2026-05-06 12:09 -12.87228 -69.73552 35048 ft 474 kts 156°
2026-05-06 12:09 -12.93224 -69.70734 35050 ft 474 kts 155°
2026-05-06 12:10 -12.99180 -69.67829 35054 ft 474 kts 155°
2026-05-06 12:10 -13.05163 -69.64971 35056 ft 474 kts 156°
2026-05-06 12:11 -13.11168 -69.62156 35061 ft 474 kts 156°
2026-05-06 12:11 -13.17172 -69.59343 35062 ft 475 kts 156°
2026-05-06 12:12 -13.23177 -69.56523 35074 ft 475 kts 156°
2026-05-06 12:12 -13.29176 -69.53699 35074 ft 474 kts 156°
2026-05-06 12:13 -13.35179 -69.50871 35088 ft 475 kts 156°
2026-05-06 12:13 -13.41198 -69.48092 35087 ft 474 kts 161°
2026-05-06 12:14 -13.47423 -69.45871 35089 ft 473 kts 161°
2026-05-06 12:14 -13.53650 -69.43660 35108 ft 473 kts 161°
2026-05-06 12:15 -13.59870 -69.41444 35109 ft 473 kts 161°
2026-05-06 12:15 -13.66097 -69.39218 35120 ft 473 kts 161°
2026-05-06 12:16 -13.72320 -69.36995 35125 ft 474 kts 162°
2026-05-06 12:16 -13.78552 -69.34777 35142 ft 474 kts 162°
2026-05-06 12:17 -13.84784 -69.32554 35145 ft 474 kts 162°
2026-05-06 12:17 -13.91016 -69.30328 35171 ft 474 kts 162°
2026-05-06 12:18 -13.97251 -69.28090 35169 ft 475 kts 161°
2026-05-06 12:18 -14.03484 -69.25856 35182 ft 475 kts 162°
2026-05-06 12:19 -14.09734 -69.23631 35166 ft 476 kts 162°
2026-05-06 12:19 -14.16011 -69.21419 35149 ft 478 kts 162°
2026-05-06 12:20 -14.22324 -69.19197 35141 ft 480 kts 162°
2026-05-06 12:20 -14.28665 -69.16992 35175 ft 481 kts 162°
2026-05-06 12:21 -14.35016 -69.14786 35184 ft 482 kts 162°
2026-05-06 12:21 -14.41379 -69.12577 35190 ft 482 kts 162°
2026-05-06 12:22 -14.47744 -69.10367 35201 ft 483 kts 162°
2026-05-06 12:22 -14.53035 -69.08525 35228 ft 483 kts 162°
2026-05-06 12:23 -14.59404 -69.06319 35231 ft 483 kts 162°
2026-05-06 12:23 -14.65776 -69.04105 35259 ft 483 kts 163°
2026-05-06 12:24 -14.72127 -69.01834 35256 ft 483 kts 162°
2026-05-06 12:24 -14.78484 -68.99550 35268 ft 484 kts 162°
2026-05-06 12:25 -14.84844 -68.97269 35232 ft 484 kts 162°
2026-05-06 12:25 -14.91203 -68.94984 35249 ft 484 kts 162°
2026-05-06 12:26 -14.97563 -68.92693 35253 ft 484 kts 162°
2026-05-06 12:26 -15.03913 -68.90389 35253 ft 484 kts 162°
2026-05-06 12:27 -15.10268 -68.88078 35260 ft 484 kts 162°
2026-05-06 12:27 -15.16624 -68.85765 35224 ft 484 kts 162°
2026-05-06 12:28 -15.22974 -68.83445 35231 ft 484 kts 162°
2026-05-06 12:28 -15.29319 -68.81121 35238 ft 483 kts 162°
2026-05-06 12:29 -15.35649 -68.78797 35239 ft 483 kts 162°
2026-05-06 12:29 -15.41980 -68.76473 35239 ft 483 kts 162°
2026-05-06 12:30 -15.48313 -68.74147 35247 ft 483 kts 162°
2026-05-06 12:30 -15.54645 -68.71817 35225 ft 483 kts 162°
2026-05-06 12:31 -15.60948 -68.69503 35253 ft 484 kts 162°
2026-05-06 12:31 -15.67293 -68.67163 35257 ft 484 kts 162°
2026-05-06 12:32 -15.73635 -68.64810 35278 ft 484 kts 162°
2026-05-06 12:32 -15.79982 -68.62460 35279 ft 484 kts 162°
2026-05-06 12:33 -15.86329 -68.60110 35296 ft 485 kts 162°
2026-05-06 12:33 -15.92684 -68.57761 35284 ft 485 kts 162°
2026-05-06 12:34 -15.99028 -68.55387 35300 ft 484 kts 162°
2026-05-06 12:34 -16.05364 -68.53004 35300 ft 484 kts 162°
2026-05-06 12:35 -16.11700 -68.50625 35309 ft 484 kts 162°
2026-05-06 12:35 -16.18032 -68.48250 35303 ft 481 kts 162°
2026-05-06 12:36 -16.21127 -68.47086 35308 ft 465 kts 162°
2026-05-06 12:36 -16.24116 -68.45958 35298 ft 449 kts 162°
2026-05-06 12:36 -16.26996 -68.44860 35300 ft 434 kts 162°
2026-05-06 12:36 -16.29804 -68.43777 35301 ft 428 kts 162°
2026-05-06 12:37 -16.32589 -68.42699 35431 ft 426 kts 162°
2026-05-06 12:37 -16.35363 -68.41625 35469 ft 425 kts 162°
2026-05-06 12:37 -16.40911 -68.39476 35547 ft 425 kts 162°
2026-05-06 12:38 -16.46456 -68.37327 35615 ft 425 kts 162°
2026-05-06 12:38 -16.52003 -68.35178 35658 ft 425 kts 162°
2026-05-06 12:39 -16.57547 -68.33027 35669 ft 426 kts 162°
2026-05-06 12:39 -16.63094 -68.30850 35644 ft 426 kts 162°
2026-05-06 12:40 -16.68643 -68.28669 35590 ft 426 kts 162°
2026-05-06 12:40 -16.74191 -68.26487 35524 ft 426 kts 162°
2026-05-06 12:41 -16.79724 -68.24311 35445 ft 425 kts 162°
2026-05-06 12:41 -16.85254 -68.22135 35355 ft 424 kts 162°
2026-05-06 12:42 -16.90778 -68.19951 35325 ft 425 kts 162°
2026-05-06 12:42 -16.96299 -68.17757 35313 ft 424 kts 162°
2026-05-06 12:43 -17.01807 -68.15569 35318 ft 423 kts 162°
2026-05-06 12:43 -17.07272 -68.13398 35314 ft 423 kts 162°
2026-05-06 12:44 -17.12815 -68.11195 35315 ft 423 kts 162°
2026-05-06 12:44 -17.18282 -68.09022 35315 ft 423 kts 162°
2026-05-06 12:45 -17.23780 -68.06822 35319 ft 423 kts 162°
2026-05-06 12:46 -17.32034 -68.03503 35321 ft 424 kts 162°
2026-05-06 12:46 -17.37541 -68.01287 35322 ft 424 kts 162°
2026-05-06 12:47 -17.43044 -67.99074 35321 ft 424 kts 162°
2026-05-06 12:47 -17.48550 -67.96856 35321 ft 424 kts 162°
2026-05-06 12:48 -17.54056 -67.94637 35318 ft 424 kts 162°
2026-05-06 12:48 -17.59563 -67.92419 35324 ft 424 kts 162°
2026-05-06 12:49 -17.65068 -67.90200 35323 ft 424 kts 162°
2026-05-06 12:49 -17.70572 -67.87979 35318 ft 424 kts 162°
2026-05-06 12:50 -17.76078 -67.85756 35318 ft 424 kts 162°
2026-05-06 12:50 -17.81583 -67.83531 35314 ft 424 kts 162°
2026-05-06 12:51 -17.87085 -67.81286 35309 ft 425 kts 162°
2026-05-06 12:51 -17.92592 -67.79036 35319 ft 425 kts 162°
2026-05-06 12:52 -17.98097 -67.76785 35319 ft 425 kts 162°
2026-05-06 12:52 -18.03607 -67.74533 35319 ft 425 kts 162°
2026-05-06 12:53 -18.09101 -67.72278 35312 ft 423 kts 162°
2026-05-06 12:53 -18.14566 -67.69998 35312 ft 423 kts 162°
2026-05-06 12:54 -18.20038 -67.67716 35315 ft 423 kts 162°
2026-05-06 12:54 -18.25521 -67.65442 35346 ft 424 kts 162°
2026-05-06 12:55 -18.30987 -67.63156 35341 ft 423 kts 162°
2026-05-06 12:55 -18.36462 -67.60874 35342 ft 423 kts 162°
2026-05-06 12:56 -18.41938 -67.58595 35346 ft 423 kts 162°
2026-05-06 12:56 -18.44628 -67.57324 35343 ft 426 kts 150°
2026-05-06 12:56 -18.46916 -67.55331 35345 ft 431 kts 131°
2026-05-06 12:56 -18.48539 -67.52674 35370 ft 434 kts 112°
2026-05-06 12:57 -18.49328 -67.49621 35369 ft 433 kts 93°
2026-05-06 12:57 -18.49205 -67.46475 35371 ft 430 kts 74°
2026-05-06 12:57 -18.48190 -67.43551 35368 ft 423 kts 55°
2026-05-06 12:57 -18.46404 -67.41146 35388 ft 414 kts 36°
2026-05-06 12:58 -18.44046 -67.39495 35388 ft 403 kts 17°
2026-05-06 12:58 -18.41382 -67.38753 35388 ft 392 kts 358°
2026-05-06 12:58 -18.38711 -67.38976 35387 ft 382 kts 339°
2026-05-06 12:58 -18.36318 -67.40093 35397 ft 376 kts 325°
2026-05-06 12:59 -18.34122 -67.41587 35369 ft 376 kts 323°
2026-05-06 12:59 -18.29773 -67.44666 35368 ft 377 kts 323°
2026-05-06 13:00 -18.25427 -67.47752 35375 ft 377 kts 323°
2026-05-06 13:00 -18.21082 -67.50837 35377 ft 377 kts 323°
2026-05-06 13:01 -18.16735 -67.53923 35373 ft 377 kts 323°
2026-05-06 13:01 -18.12393 -67.56993 35350 ft 376 kts 323°
2026-05-06 13:02 -18.08052 -67.60049 35340 ft 375 kts 323°
2026-05-06 13:02 -18.03719 -67.63121 35350 ft 376 kts 323°
2026-05-06 13:03 -17.99381 -67.66195 35356 ft 376 kts 323°
2026-05-06 13:03 -17.95042 -67.69265 35326 ft 376 kts 323°
2026-05-06 13:04 -17.90704 -67.72332 35340 ft 376 kts 323°
2026-05-06 13:04 -17.86367 -67.75398 35339 ft 376 kts 323°
2026-05-06 13:05 -17.82043 -67.78453 34919 ft 372 kts 323°
2026-05-06 13:05 -17.79935 -67.79944 34553 ft 369 kts 323°
2026-05-06 13:05 -17.77820 -67.81448 34109 ft 366 kts 323°
2026-05-06 13:05 -17.75697 -67.82970 33677 ft 363 kts 323°
2026-05-06 13:06 -17.73651 -67.84451 33268 ft 361 kts 323°
2026-05-06 13:06 -17.71600 -67.85947 32867 ft 358 kts 323°
2026-05-06 13:06 -17.69570 -67.87440 32470 ft 355 kts 323°
2026-05-06 13:06 -17.67560 -67.88931 32069 ft 353 kts 323°
2026-05-06 13:07 -17.65574 -67.90417 31690 ft 350 kts 323°
2026-05-06 13:07 -17.63607 -67.91900 31294 ft 347 kts 323°
2026-05-06 13:07 -17.61658 -67.93383 30908 ft 345 kts 323°
2026-05-06 13:07 -17.59695 -67.94830 30030 ft 348 kts 326°
2026-05-06 13:08 -17.57652 -67.96211 29150 ft 349 kts 327°
2026-05-06 13:08 -17.55618 -67.97576 28784 ft 342 kts 327°
2026-05-06 13:08 -17.54303 -67.98459 28663 ft 336 kts 327°
2026-05-06 13:08 -17.52352 -67.99772 28337 ft 331 kts 327°
2026-05-06 13:09 -17.50424 -68.01073 27956 ft 328 kts 327°
2026-05-06 13:09 -17.48515 -68.02365 27566 ft 326 kts 327°
2026-05-06 13:09 -17.46620 -68.03652 27167 ft 324 kts 327°
2026-05-06 13:09 -17.44740 -68.04935 26788 ft 321 kts 327°
2026-05-06 13:10 -17.42874 -68.06213 26399 ft 320 kts 327°
2026-05-06 13:10 -17.41022 -68.07487 26022 ft 318 kts 327°
2026-05-06 13:10 -17.39181 -68.08759 25660 ft 316 kts 327°
2026-05-06 13:10 -17.37354 -68.10026 25287 ft 314 kts 327°
2026-05-06 13:11 -17.35537 -68.11291 24933 ft 313 kts 327°
2026-05-06 13:11 -17.33736 -68.12551 24566 ft 311 kts 327°
2026-05-06 13:11 -17.31943 -68.13809 24221 ft 310 kts 327°
2026-05-06 13:11 -17.30162 -68.15065 23878 ft 308 kts 327°
2026-05-06 13:12 -17.28391 -68.16317 23483 ft 307 kts 327°
2026-05-06 13:12 -17.26626 -68.17563 23075 ft 305 kts 327°
2026-05-06 13:12 -17.24875 -68.18797 22725 ft 303 kts 327°
2026-05-06 13:12 -17.23123 -68.20026 22343 ft 302 kts 327°
2026-05-06 13:13 -17.21376 -68.21247 21989 ft 301 kts 327°
2026-05-06 13:13 -17.19640 -68.22460 21648 ft 300 kts 327°
2026-05-06 13:13 -17.17868 -68.23560 21309 ft 298 kts 334°
2026-05-06 13:13 -17.16020 -68.24523 20976 ft 296 kts 335°
2026-05-06 13:14 -17.14169 -68.25461 20649 ft 295 kts 335°
2026-05-06 13:14 -17.12322 -68.26392 20330 ft 294 kts 335°
2026-05-06 13:14 -17.10484 -68.27322 20016 ft 293 kts 335°
2026-05-06 13:14 -17.08656 -68.28245 19704 ft 291 kts 335°
2026-05-06 13:15 -17.06831 -68.29169 19374 ft 291 kts 335°
2026-05-06 13:15 -17.05011 -68.30089 19051 ft 290 kts 335°
2026-05-06 13:15 -17.03191 -68.31004 18749 ft 290 kts 335°
2026-05-06 13:15 -17.01377 -68.31916 18437 ft 289 kts 335°
2026-05-06 13:16 -16.99565 -68.32827 18121 ft 288 kts 335°
2026-05-06 13:16 -16.97759 -68.33732 17785 ft 287 kts 335°
2026-05-06 13:16 -16.95964 -68.34631 17561 ft 285 kts 335°
2026-05-06 13:16 -16.94172 -68.35529 17535 ft 286 kts 335°
2026-05-06 13:17 -16.92376 -68.36423 17548 ft 286 kts 336°
2026-05-06 13:17 -16.90486 -68.37028 17539 ft 284 kts 354°
2026-05-06 13:17 -16.88517 -68.37229 17483 ft 285 kts 356°
2026-05-06 13:17 -16.86544 -68.37366 17367 ft 284 kts 358°
2026-05-06 13:18 -16.84566 -68.37482 17512 ft 293 kts 358°
2026-05-06 13:18 -16.82450 -68.37604 17553 ft 317 kts 357°
2026-05-06 13:18 -16.80196 -68.37737 17588 ft 329 kts 358°
2026-05-06 13:18 -16.77926 -68.37492 17621 ft 329 kts 21°
2026-05-06 13:19 -16.76039 -68.36194 17659 ft 328 kts 50°
2026-05-06 13:19 -16.74650 -68.34309 17695 ft 329 kts 50°
2026-05-06 13:19 -16.72850 -68.32865 17741 ft 330 kts 22°
2026-05-06 13:19 -16.70601 -68.32488 17765 ft 332 kts 353°
2026-05-06 13:20 -16.68470 -68.33264 17792 ft 321 kts 326°
2026-05-06 13:20 -16.66827 -68.34754 17801 ft 307 kts 312°
2026-05-06 13:20 -16.65541 -68.36469 17785 ft 294 kts 305°
2026-05-06 13:20 -16.64243 -68.38039 17784 ft 279 kts 321°
2026-05-06 13:21 -16.62682 -68.39094 17783 ft 267 kts 338°
2026-05-06 13:21 -16.60913 -68.39593 17785 ft 263 kts 356°
2026-05-06 13:21 -16.59101 -68.39473 17817 ft 260 kts 16°
2026-05-06 13:21 -16.57458 -68.38760 17829 ft 261 kts 34°
2026-05-06 13:22 -16.56077 -68.37488 17860 ft 269 kts 53°
2026-05-06 13:22 -16.55161 -68.35793 17880 ft 270 kts 72°
2026-05-06 13:22 -16.54819 -68.33871 17926 ft 271 kts 88°
2026-05-06 13:22 -16.54721 -68.31907 17953 ft 271 kts 87°
2026-05-06 13:23 -16.54517 -68.29953 17977 ft 272 kts 79°
2026-05-06 13:23 -16.54018 -68.28048 18005 ft 272 kts 70°
2026-05-06 13:23 -16.53245 -68.26255 18002 ft 272 kts 61°
2026-05-06 13:23 -16.52213 -68.24598 18009 ft 272 kts 52°
2026-05-06 13:24 -16.50934 -68.23233 17883 ft 276 kts 32°
2026-05-06 13:24 -16.49149 -68.22597 17741 ft 271 kts
2026-05-06 13:24 -16.47294 -68.22902 17600 ft 273 kts 335°
2026-05-06 13:24 -16.45801 -68.24088 17430 ft 272 kts 306°
2026-05-06 13:25 -16.45042 -68.25868 17233 ft 271 kts 278°
2026-05-06 13:25 -16.45120 -68.27814 17033 ft 271 kts 261°
2026-05-06 13:25 -16.45424 -68.29748 16821 ft 270 kts 261°
2026-05-06 13:25 -16.45728 -68.31663 16646 ft 264 kts 263°
2026-05-06 13:26 -16.45688 -68.33521 16426 ft 251 kts 282°
2026-05-06 13:26 -16.45108 -68.35188 16208 ft 240 kts 298°
2026-05-06 13:26 -16.44338 -68.36677 16058 ft 226 kts 298°
2026-05-06 13:26 -16.43770 -68.38094 15966 ft 212 kts 280°
2026-05-06 13:27 -16.43758 -68.39564 15871 ft 197 kts 257°
2026-05-06 13:27 -16.44248 -68.40846 15799 ft 189 kts 236°
2026-05-06 13:27 -16.45134 -68.41837 15726 ft 188 kts 214°
2026-05-06 13:27 -16.46302 -68.42427 15656 ft 187 kts 193°
2026-05-06 13:28 -16.47627 -68.42536 15600 ft 202 kts 172°
2026-05-06 13:28 -16.49036 -68.42054 15558 ft 227 kts 148°
2026-05-06 13:28 -16.50217 -68.40855 15491 ft 249 kts 120°
2026-05-06 13:28 -16.50708 -68.39118 15430 ft 255 kts 93°
2026-05-06 13:29 -16.50770 -68.37265 15371 ft 257 kts 91°
2026-05-06 13:29 -16.50814 -68.35443 15283 ft 246 kts 91°
2026-05-06 13:29 -16.50868 -68.33697 15086 ft 236 kts 92°
2026-05-06 13:29 -16.50922 -68.32038 14888 ft 222 kts 91°
2026-05-06 13:30 -16.50972 -68.30496 14703 ft 204 kts 91°
2026-05-06 13:30 -16.51018 -68.29074 14565 ft 190 kts 91°
2026-05-06 13:30 -16.51061 -68.27752 14338 ft 184 kts 91°
2026-05-06 13:30 -16.51103 -68.26439 14116 ft 181 kts 91°
2026-05-06 13:31 -16.51145 -68.25132 13885 ft 181 kts 91°
2026-05-06 13:31 -16.51186 -68.23851 13632 ft 180 kts 91°
2026-05-06 13:31 -16.51233 -68.22545 13368 ft 178 kts 91°
2026-05-06 13:31 -16.51271 -68.21253 13227 ft 179 kts 90°
2026-05-06 13:32 -16.51312 -68.19972 13236 ft 175 kts 91°
2026-05-06 13:32 -16.51335 -68.18720 13448 ft 181 kts 90°
2026-05-06 13:32 -16.51324 -68.17364 13926 ft 191 kts 78°
2026-05-06 13:32 -16.50797 -68.16213 14518 ft 163 kts 41°
2026-05-06 13:33 -16.49761 -68.15384 13667 ft 235 kts 31°
2026-05-06 13:33 -16.48198 -68.14589 14276 ft 241 kts 14°
2026-05-06 13:33 -16.46578 -68.14285 15402 ft 238 kts
2026-05-06 13:33 -16.44885 -68.14251 15882 ft 255 kts
2026-05-06 13:34 -16.43105 -68.13692 16150 ft 273 kts 21°
2026-05-06 13:34 -16.41297 -68.13159 16972 ft 272 kts
2026-05-06 13:34 -16.39412 -68.13279 17703 ft 273 kts 345°
2026-05-06 13:34 -16.37696 -68.14111 18459 ft 273 kts 323°
2026-05-06 13:35 -16.36391 -68.15532 19176 ft 272 kts 301°
2026-05-06 13:35 -16.35681 -68.17337 19849 ft 270 kts 280°
2026-05-06 13:35 -16.35661 -68.19261 20508 ft 266 kts 259°
2026-05-06 13:35 -16.36420 -68.21076 20541 ft 286 kts 228°
2026-05-06 13:36 -16.38003 -68.22337 20758 ft 296 kts 214°
2026-05-06 13:36 -16.39559 -68.23806 20202 ft 308 kts 232°
2026-05-06 13:36 -16.40595 -68.25766 19603 ft 314 kts 253°
2026-05-06 13:36 -16.40836 -68.28026 19058 ft 315 kts 276°
2026-05-06 13:37 -16.40250 -68.30127 18532 ft 292 kts 295°
2026-05-06 13:37 -16.39350 -68.31946 17925 ft 275 kts 298°
2026-05-06 13:37 -16.38457 -68.33649 17322 ft 262 kts 299°
2026-05-06 13:37 -16.37583 -68.35264 16750 ft 251 kts 300°
2026-05-06 13:38 -16.36871 -68.36857 16472 ft 234 kts 281°
2026-05-06 13:38 -16.36973 -68.38450 16315 ft 214 kts 246°
2026-05-06 13:38 -16.37860 -68.39613 16014 ft 205 kts 210°
2026-05-06 13:38 -16.39192 -68.39979 15726 ft 197 kts 175°
2026-05-06 13:39 -16.40521 -68.39589 15785 ft 203 kts 155°
2026-05-06 13:39 -16.41789 -68.38938 15679 ft 202 kts 153°
2026-05-06 13:39 -16.43027 -68.38268 15427 ft 196 kts 152°
2026-05-06 13:39 -16.44179 -68.37632 15297 ft 186 kts 150°
2026-05-06 13:40 -16.45291 -68.36961 15057 ft 184 kts 150°
2026-05-06 13:40 -16.46374 -68.36262 14903 ft 183 kts 146°
2026-05-06 13:40 -16.47410 -68.35484 14888 ft 183 kts 143°
2026-05-06 13:40 -16.48434 -68.34684 14904 ft 184 kts 143°
2026-05-06 13:41 -16.49456 -68.33876 14924 ft 184 kts 143°
2026-05-06 13:41 -16.50372 -68.32954 14913 ft 184 kts 124°
2026-05-06 13:41 -16.50886 -68.31744 14825 ft 183 kts 100°
2026-05-06 13:41 -16.50976 -68.30421 14697 ft 183 kts 91°
2026-05-06 13:42 -16.51018 -68.29100 14562 ft 182 kts 91°
2026-05-06 13:42 -16.51060 -68.27797 14338 ft 180 kts 91°
2026-05-06 13:42 -16.51101 -68.26500 14128 ft 179 kts 91°
2026-05-06 13:42 -16.51143 -68.25212 13897 ft 179 kts 91°
2026-05-06 13:43 -16.51184 -68.23915 13641 ft 178 kts 90°
2026-05-06 13:43 -16.51224 -68.22630 13361 ft 179 kts 91°
2026-05-06 13:43 -16.51268 -68.21346 13236 ft 177 kts 90°
2026-05-06 13:43 -16.51311 -68.20074 13231 ft 169 kts 91°
2026-05-06 13:44 -16.51338 -68.19079 13285 ft 97 kts 93°
2026-05-06 13:44 -16.51354 -68.18592 13295 ft 53 kts 93°
2026-05-06 13:44 -16.51324 -68.18306 13303 ft 29 kts 48°
2026-05-06 13:44 -16.51286 -68.18225 13302 ft 10 kts 64°
2026-05-06 13:45 -16.51243 -68.18159 13310 ft 11 kts 52°
2026-05-06 13:45 -16.51170 -68.18074 13321 ft 6 kts 47°
2026-05-06 13:45 -16.51144 -68.18044 13327 ft 7 kts 47°
2026-05-06 13:46 -16.51103 -68.17999 13332 ft 9 kts 47°
2026-05-06 13:46 -16.51066 -68.17957 13333 ft 6 kts 46°
2026-05-06 13:46 -16.51043 -68.17932 13335 ft 4 kts 46°
2026-05-06 13:46 -16.51006 -68.17889 13335 ft 14 kts 53°
2026-05-06 13:47 -16.50993 -68.17787 13336 ft 15 kts 91°
2026-05-06 13:47 -16.51030 -68.17690 13336 ft 14 kts 118°
2026-05-06 13:47 -16.51043 -68.17640 13336 ft 4 kts 48°
2026-05-06 13:47 -16.51035 -68.17630 13335 ft 0 kts 51°
2026-05-06 13:49 -16.51017 -68.17622 13336 ft 3 kts 21°
2026-05-06 13:49 -16.51008 -68.17617 13336 ft 0 kts 25°